| time (UTC) | temp F | wind direction | speed MPH | gust MPH | rain 1hr in | rain 24hr in | rain mn in | humidity % | barometer mb |
| 20260509023735 | 52 | 160 | 4.0 | 4.0 | 0.00 | 0.00 | 0.02 | 82 | 1007.8 |
| 20260509022735 | 53 | 152 | 4.0 | 4.0 | 0.00 | 0.00 | 0.02 | 81 | 1007.8 |
| 20260509021734 | 53 | 154 | 4.0 | 4.0 | 0.00 | 0.00 | 0.02 | 80 | 1007.8 |
| 20260509020734 | 54 | 149 | 3.0 | 3.0 | 0.00 | 0.00 | 0.02 | 79 | 1007.8 |
| 20260509015734 | 54 | 150 | 3.0 | 3.0 | 0.00 | 0.00 | 0.02 | 78 | 1007.8 |
| 20260509014735 | 55 | 149 | 3.0 | 3.0 | 0.00 | 0.00 | 0.02 | 76 | 1007.8 |
| 20260509014235 | 55 | 150 | 3.0 | 3.0 | 0.00 | 0.00 | 0.02 | 75 | 1007.5 |
| 20260509013235 | 56 | 166 | 2.0 | 2.0 | 0.00 | 0.00 | 0.02 | 74 | 1007.5 |
| 20260509012235 | 56 | 165 | 2.0 | 2.0 | 0.00 | 0.00 | 0.02 | 74 | 1007.5 |
| 20260509011734 | 57 | 155 | 2.0 | 2.0 | 0.00 | 0.00 | 0.02 | 72 | 1007.5 |
| 20260509011234 | 57 | 155 | 2.0 | 2.0 | 0.00 | 0.00 | 0.02 | 72 | 1007.5 |
| 20260509010236 | 57 | 165 | 2.0 | 2.0 | 0.00 | 0.00 | 0.02 | 71 | 1007.5 |
| 20260509005735 | 57 | 163 | 2.0 | 2.0 | 0.00 | 0.00 | 0.02 | 70 | 1007.5 |
| 20260509005236 | 57 | 159 | 2.0 | 2.0 | 0.00 | 0.00 | 0.02 | 70 | 1007.1 |
| 20260509004236 | 58 | 158 | 1.0 | 1.0 | 0.00 | 0.00 | 0.02 | 67 | 1007.1 |
| 20260509003735 | 58 | 211 | 1.0 | 1.0 | 0.00 | 0.00 | 0.02 | 67 | 1007.1 |
| 20260509002735 | 59 | 190 | 2.0 | 2.0 | 0.00 | 0.00 | 0.02 | 64 | 1007.1 |
| 20260509002234 | 59 | 219 | 2.0 | 2.0 | 0.00 | 0.00 | 0.02 | 63 | 1007.1 |
| 20260509001235 | 59 | 196 | 2.0 | 2.0 | 0.00 | 0.00 | 0.02 | 62 | 1007.1 |
| 20260509000236 | 60 | 158 | 2.0 | 2.0 | 0.00 | 0.00 | 0.02 | 61 | 1007.1 |
| 20260508235735 | 60 | 174 | 2.0 | 2.0 | 0.00 | 0.00 | 0.02 | 60 | 1007.1 |
| 20260508234735 | 61 | 185 | 2.0 | 2.0 | 0.00 | 0.00 | 0.02 | 56 | 1007.1 |
| 20260508233735 | 62 | 195 | 2.0 | 2.0 | 0.00 | 0.00 | 0.02 | 52 | 1007.1 |
| 20260508232735 | 62 | 176 | 3.0 | 3.0 | 0.00 | 0.00 | 0.02 | 51 | 1007.1 |
| 20260508232235 | 62 | 172 | 3.0 | 3.0 | 0.00 | 0.00 | 0.02 | 50 | 1007.1 |
| 20260508231235 | 62 | 171 | 3.0 | 3.0 | 0.00 | 0.00 | 0.02 | 49 | 1007.1 |
| 20260508230235 | 62 | 171 | 3.0 | 3.0 | 0.00 | 0.00 | 0.02 | 48 | 1006.8 |
| 20260508225235 | 62 | 163 | 2.0 | 2.0 | 0.00 | 0.00 | 0.02 | 46 | 1006.8 |
| 20260508224735 | 63 | 218 | 2.0 | 2.0 | 0.00 | 0.00 | 0.02 | 47 | 1006.8 |
| 20260508224236 | 63 | 177 | 3.0 | 3.0 | 0.00 | 0.00 | 0.02 | 47 | 1007.1 |
| 20260508223735 | 63 | 195 | 2.0 | 2.0 | 0.00 | 0.00 | 0.02 | 45 | 1007.1 |
| 20260508222736 | 63 | 252 | 2.0 | 2.0 | 0.00 | 0.00 | 0.02 | 41 | 1007.1 |
| 20260508221735 | 63 | 172 | 2.0 | 2.0 | 0.00 | 0.00 | 0.02 | 44 | 1007.1 |
| 20260508220735 | 64 | 209 | 2.0 | 2.0 | 0.00 | 0.00 | 0.02 | 43 | 1007.1 |
| 20260508215736 | 65 | 221 | 2.0 | 2.0 | 0.00 | 0.00 | 0.02 | 38 | 1007.1 |
| 20260508214735 | 64 | 284 | 3.0 | 3.0 | 0.00 | 0.00 | 0.02 | 37 | 1007.1 |
| 20260508213735 | 64 | 254 | 2.0 | 2.0 | 0.00 | 0.00 | 0.02 | 37 | 1007.1 |
| 20260508212736 | 64 | 242 | 2.0 | 2.0 | 0.00 | 0.00 | 0.02 | 38 | 1007.5 |
| 20260508212235 | 64 | 242 | 2.0 | 2.0 | 0.00 | 0.00 | 0.02 | 38 | 1007.5 |
| 20260508211235 | 64 | 259 | 2.0 | 2.0 | 0.00 | 0.00 | 0.02 | 39 | 1007.5 |
| 20260508210235 | 64 | 230 | 3.0 | 3.0 | 0.00 | 0.00 | 0.02 | 38 | 1007.5 |
| 20260508205735 | 64 | 212 | 3.0 | 3.0 | 0.00 | 0.00 | 0.02 | 38 | 1007.5 |
| 20260508204735 | 64 | 233 | 3.0 | 3.0 | 0.00 | 0.00 | 0.02 | 38 | 1007.5 |
| 20260508203735 | 63 | 273 | 3.0 | 3.0 | 0.00 | 0.00 | 0.02 | 37 | 1007.5 |
| 20260508203235 | 63 | 205 | 2.0 | 2.0 | 0.00 | 0.00 | 0.02 | 37 | 1007.8 |
| 20260508202235 | 63 | 212 | 2.0 | 2.0 | 0.00 | 0.00 | 0.02 | 39 | 1008.1 |
| 20260508201235 | 62 | 273 | 2.0 | 2.0 | 0.00 | 0.00 | 0.02 | 41 | 1008.1 |
| 20260508200235 | 62 | 278 | 2.0 | 2.0 | 0.00 | 0.00 | 0.02 | 39 | 1008.5 |
| 20260508195235 | 60 | 174 | 2.0 | 2.0 | 0.00 | 0.00 | 0.02 | 40 | 1008.5 |
| 20260508194236 | 60 | 127 | 2.0 | 2.0 | 0.00 | 0.00 | 0.02 | 39 | 1008.5 |
| 20260508193236 | 59 | 77 | 2.0 | 2.0 | 0.00 | 0.00 | 0.02 | 38 | 1008.5 |
| 20260508192735 | 59 | 49 | 2.0 | 2.0 | 0.00 | 0.00 | 0.02 | 42 | 1008.5 |
| 20260508192235 | 60 | 20 | 2.0 | 2.0 | 0.00 | 0.00 | 0.02 | 42 | 1008.8 |
| 20260508191235 | 60 | 151 | 2.0 | 2.0 | 0.00 | 0.00 | 0.02 | 40 | 1009.1 |
| 20260508190235 | 59 | 45 | 2.0 | 2.0 | 0.00 | 0.00 | 0.02 | 44 | 1009.1 |
| 20260508185735 | 59 | 32 | 2.0 | 2.0 | 0.00 | 0.00 | 0.02 | 42 | 1009.1 |
| 20260508184735 | 58 | 46 | 2.0 | 2.0 | 0.00 | 0.00 | 0.02 | 47 | 1009.1 |
| 20260508184235 | 58 | 54 | 2.0 | 2.0 | 0.00 | 0.00 | 0.02 | 43 | 1009.1 |
| 20260508183736 | 58 | 61 | 2.0 | 2.0 | 0.00 | 0.00 | 0.02 | 47 | 1009.5 |
| 20260508183235 | 58 | 44 | 2.0 | 2.0 | 0.00 | 0.00 | 0.02 | 47 | 1009.5 |
| 20260508182236 | 59 | 141 | 2.0 | 2.0 | 0.00 | 0.00 | 0.02 | 41 | 1009.5 |
| 20260508181235 | 59 | 38 | 3.0 | 3.0 | 0.00 | 0.00 | 0.02 | 42 | 1009.5 |
| 20260508180236 | 58 | 50 | 3.0 | 3.0 | 0.00 | 0.00 | 0.02 | 41 | 1009.8 |
| 20260508175736 | 58 | 32 | 3.0 | 3.0 | 0.00 | 0.00 | 0.02 | 42 | 1009.8 |
| 20260508174735 | 58 | 35 | 2.0 | 2.0 | 0.00 | 0.00 | 0.02 | 40 | 1010.2 |
| 20260508174235 | 57 | 36 | 2.0 | 2.0 | 0.00 | 0.00 | 0.02 | 44 | 1010.2 |
| 20260508173236 | 58 | 92 | 2.0 | 2.0 | 0.00 | 0.00 | 0.02 | 42 | 1010.2 |
| 20260508172235 | 58 | 127 | 3.0 | 3.0 | 0.00 | 0.00 | 0.02 | 40 | 1010.2 |
| 20260508171235 | 58 | 68 | 3.0 | 3.0 | 0.00 | 0.00 | 0.02 | 40 | 1010.2 |
| 20260508170736 | 58 | 50 | 2.0 | 2.0 | 0.00 | 0.00 | 0.02 | 41 | 1010.5 |
| 20260508165736 | 57 | 49 | 2.0 | 2.0 | 0.00 | 0.00 | 0.02 | 45 | 1010.8 |
| 20260508164736 | 57 | 82 | 2.0 | 2.0 | 0.00 | 0.00 | 0.02 | 44 | 1010.8 |
| 20260508163737 | 56 | 33 | 2.0 | 2.0 | 0.00 | 0.00 | 0.02 | 45 | 1010.8 |
| 20260508163236 | 57 | 55 | 2.0 | 2.0 | 0.00 | 0.00 | 0.02 | 47 | 1010.8 |
| 20260508162236 | 58 | 316 | 2.0 | 2.0 | 0.00 | 0.00 | 0.02 | 40 | 1010.8 |
| 20260508161736 | 57 | 329 | 2.0 | 2.0 | 0.00 | 0.00 | 0.02 | 38 | 1010.8 |
| 20260508160738 | 57 | 203 | 2.0 | 2.0 | 0.00 | 0.00 | 0.02 | 37 | 1010.8 |
| 20260508160237 | 57 | 247 | 2.0 | 2.0 | 0.00 | 0.00 | 0.02 | 39 | 1011.2 |
| 20260508155737 | 57 | 266 | 2.0 | 2.0 | 0.00 | 0.00 | 0.02 | 38 | 1011.2 |
| 20260508155237 | 57 | 237 | 1.0 | 1.0 | 0.00 | 0.00 | 0.02 | 38 | 1010.8 |
| 20260508154238 | 57 | 253 | 1.0 | 1.0 | 0.00 | 0.00 | 0.02 | 39 | 1011.2 |
| 20260508153736 | 57 | 275 | 1.0 | 1.0 | 0.00 | 0.00 | 0.02 | 39 | 1011.2 |
| 20260508153236 | 57 | 298 | 1.0 | 1.0 | 0.00 | 0.00 | 0.02 | 40 | 1011.2 |
| 20260508152236 | 57 | 305 | 2.0 | 2.0 | 0.00 | 0.00 | 0.02 | 41 | 1011.2 |
| 20260508151736 | 56 | 319 | 2.0 | 2.0 | 0.00 | 0.00 | 0.02 | 44 | 1011.5 |
| 20260508150736 | 55 | 238 | 2.0 | 2.0 | 0.00 | 0.00 | 0.02 | 48 | 1011.5 |
| 20260508145736 | 56 | 188 | 2.0 | 2.0 | 0.00 | 0.00 | 0.02 | 47 | 1011.5 |
| 20260508145235 | 54 | 33 | 2.0 | 2.0 | 0.00 | 0.00 | 0.02 | 50 | 1011.5 |
| 20260508144235 | 54 | 335 | 2.0 | 2.0 | 0.00 | 0.00 | 0.02 | 49 | 1011.5 |
| 20260508143236 | 53 | 247 | 1.0 | 1.0 | 0.00 | 0.00 | 0.02 | 49 | 1011.5 |
| 20260508142736 | 54 | 312 | 1.0 | 1.0 | 0.00 | 0.00 | 0.02 | 52 | 1011.9 |
| 20260508141736 | 53 | 25 | 1.0 | 1.0 | 0.00 | 0.00 | 0.02 | 50 | 1011.9 |
| 20260508140736 | 52 | 305 | 1.0 | 1.0 | 0.00 | 0.00 | 0.02 | 56 | 1011.9 |
| 20260508135736 | 50 | 312 | 1.0 | 1.0 | 0.00 | 0.00 | 0.02 | 60 | 1011.9 |
| 20260508134736 | 50 | 276 | 1.0 | 1.0 | 0.00 | 0.00 | 0.02 | 61 | 1011.9 |
| 20260508133737 | 50 | 252 | 1.0 | 1.0 | 0.00 | 0.00 | 0.02 | 61 | 1011.9 |
| 20260508132737 | 49 | 233 | 1.0 | 1.0 | 0.00 | 0.00 | 0.02 | 66 | 1011.9 |
| 20260508132236 | 48 | 351 | 1.0 | 1.0 | 0.00 | 0.00 | 0.02 | 69 | 1011.9 |
| 20260508131236 | 48 | 210 | 1.0 | 1.0 | 0.00 | 0.00 | 0.02 | 69 | 1011.9 |
| 20260508130237 | 48 | 195 | 1.0 | 1.0 | 0.00 | 0.00 | 0.02 | 71 | 1011.9 |
| 20260508125736 | 47 | 250 | 1.0 | 1.0 | 0.00 | 0.00 | 0.02 | 71 | 1011.9 |
| 20260508125236 | 47 | 252 | 1.0 | 1.0 | 0.00 | 0.00 | 0.02 | 72 | 1011.9 |
| 20260508124237 | 46 | 281 | 0.0 | 0.0 | 0.00 | 0.00 | 0.02 | 75 | 1011.5 |
| 20260508123736 | 45 | 292 | 0.0 | 0.0 | 0.00 | 0.00 | 0.02 | 75 | 1011.5 |
| 20260508122737 | 44 | 220 | 0.0 | 0.0 | 0.00 | 0.00 | 0.02 | 80 | 1011.5 |
| 20260508122236 | 42 | 305 | 0.0 | 0.0 | 0.00 | 0.00 | 0.02 | 84 | 1011.5 |
| 20260508121736 | 42 | 305 | 0.0 | 0.0 | 0.00 | 0.00 | 0.02 | 84 | 1011.5 |
| 20260508120737 | 41 | 131 | 0.0 | 0.0 | 0.00 | 0.00 | 0.02 | 87 | 1011.2 |
| 20260508120236 | 40 | 99 | 0.0 | 0.0 | 0.00 | 0.00 | 0.02 | 90 | 1011.2 |
| 20260508115237 | 40 | 0 | 0.0 | 0.0 | 0.00 | 0.00 | 0.02 | 92 | 1011.2 |
| 20260508114736 | 39 | 94 | 0.0 | 0.0 | 0.00 | 0.00 | 0.02 | 92 | 1011.2 |
| 20260508113736 | 39 | 276 | 0.0 | 0.0 | 0.00 | 0.00 | 0.02 | 94 | 1011.2 |
| 20260508113236 | 38 | 115 | 0.0 | 0.0 | 0.00 | 0.00 | 0.02 | 95 | 1011.2 |
| 20260508112236 | 38 | 236 | 0.0 | 0.0 | 0.00 | 0.00 | 0.02 | 96 | 1011.2 |
| 20260508111236 | 38 | 232 | 0.0 | 0.0 | 0.00 | 0.00 | 0.02 | 95 | 1011.2 |
| 20260508110236 | 37 | 234 | 0.0 | 0.0 | 0.00 | 0.00 | 0.02 | 96 | 1011.2 |
| 20260508105236 | 37 | 223 | 0.0 | 0.0 | 0.00 | 0.00 | 0.02 | 96 | 1011.2 |
| 20260508104237 | 37 | 220 | 0.0 | 0.0 | 0.00 | 0.00 | 0.02 | 95 | 1010.8 |
| 20260508103237 | 38 | 188 | 0.0 | 0.0 | 0.00 | 0.00 | 0.02 | 94 | 1010.8 |
| 20260508102736 | 38 | 177 | 0.0 | 0.0 | 0.00 | 0.00 | 0.02 | 94 | 1010.8 |
| 20260508101737 | 38 | 222 | 0.0 | 0.0 | 0.00 | 0.00 | 0.02 | 94 | 1011.2 |
| 20260508101236 | 38 | 211 | 0.0 | 0.0 | 0.00 | 0.00 | 0.02 | 93 | 1011.2 |
| 20260508100737 | 39 | 221 | 0.0 | 0.0 | 0.00 | 0.00 | 0.02 | 93 | 1011.2 |
| 20260508095737 | 39 | 220 | 0.0 | 0.0 | 0.00 | 0.00 | 0.02 | 93 | 1011.2 |
| 20260508094737 | 39 | 234 | 0.0 | 0.0 | 0.00 | 0.00 | 0.02 | 93 | 1011.2 |
| 20260508093737 | 40 | 198 | 0.0 | 0.0 | 0.00 | 0.00 | 0.02 | 91 | 1011.2 |
| 20260508092737 | 40 | 209 | 0.0 | 0.0 | 0.00 | 0.00 | 0.02 | 89 | 1011.2 |
| 20260508092237 | 40 | 218 | 0.0 | 0.0 | 0.00 | 0.00 | 0.02 | 90 | 1011.2 |
| 20260508091237 | 40 | 202 | 0.0 | 0.0 | 0.01 | 0.00 | 0.02 | 90 | 1011.2 |
| 20260508090737 | 40 | 207 | 0.0 | 0.0 | 0.01 | 0.00 | 0.02 | 90 | 1011.2 |
| 20260508090236 | 41 | 221 | 0.0 | 0.0 | 0.01 | 0.00 | 0.02 | 90 | 1011.2 |
| 20260508085237 | 42 | 176 | 0.0 | 0.0 | 0.01 | 0.00 | 0.02 | 88 | 1011.2 |
| 20260508084237 | 42 | 194 | 0.0 | 0.0 | 0.01 | 0.00 | 0.02 | 87 | 1011.2 |
| 20260508083737 | 42 | 232 | 0.0 | 0.0 | 0.01 | 0.00 | 0.02 | 87 | 1011.2 |
| 20260508082737 | 42 | 78 | 0.0 | 0.0 | 0.00 | 0.00 | 0.02 | 90 | 1011.2 |
| 20260508081736 | 42 | 353 | 0.0 | 0.0 | 0.00 | 0.00 | 0.01 | 90 | 1011.5 |
| 20260508080738 | 41 | 118 | 0.0 | 0.0 | 0.01 | 0.00 | 0.01 | 89 | 1010.8 |
| 20260508080236 | 42 | 183 | 0.0 | 0.0 | 0.01 | 0.00 | 0.01 | 89 | 1011.2 |
| 20260508075237 | 42 | 197 | 0.0 | 0.0 | 0.01 | 0.00 | 0.01 | 88 | 1011.2 |
| 20260508074736 | 42 | 181 | 0.0 | 0.0 | 0.01 | 0.00 | 0.01 | 89 | 1011.2 |
| 20260508073737 | 41 | 246 | 0.0 | 0.0 | 0.01 | 0.00 | 0.01 | 90 | 1011.5 |
| 20260508073237 | 41 | 272 | 0.0 | 0.0 | 0.01 | 0.00 | 0.01 | 89 | 1011.2 |
| 20260508072736 | 42 | 185 | 0.0 | 0.0 | 0.01 | 0.00 | 0.01 | 88 | 1011.2 |
| 20260508071736 | 42 | 134 | 0.0 | 0.0 | 0.01 | 0.00 | 0.01 | 88 | 1011.2 |
| 20260508070736 | 42 | 193 | 0.0 | 0.0 | 0.01 | 0.00 | 0.01 | 90 | 1011.5 |
| 20260508065737 | 42 | 192 | 0.0 | 0.0 | 0.01 | 0.00 | 0.00 | 89 | 1011.5 |
| 20260508064736 | 42 | 222 | 0.0 | 0.0 | 0.00 | 0.00 | 0.00 | 88 | 1011.9 |
| 20260508063737 | 42 | 251 | 0.0 | 0.0 | 0.00 | 0.00 | 0.00 | 86 | 1011.9 |
| 20260508062737 | 42 | 50 | 0.0 | 0.0 | 0.00 | 0.00 | 0.00 | 84 | 1011.9 |
| 20260508061737 | 42 | 355 | 0.0 | 0.0 | 0.00 | 0.00 | 0.00 | 82 | 1011.9 |
| 20260508061237 | 42 | 330 | 0.0 | 0.0 | 0.00 | 0.00 | 0.00 | 82 | 1011.9 |
| 20260508060737 | 42 | 330 | 0.0 | 0.0 | 0.00 | 0.00 | 0.00 | 82 | 1011.9 |
| 20260508055736 | 42 | 152 | 0.0 | 0.0 | 0.00 | 0.00 | 0.00 | 81 | 1011.9 |
| 20260508054737 | 42 | 143 | 0.0 | 0.0 | 0.00 | 0.00 | 0.00 | 80 | 1012.2 |
| 20260508054237 | 43 | 107 | 0.0 | 0.0 | 0.00 | 0.00 | 0.00 | 80 | 1012.2 |
| 20260508053737 | 43 | 30 | 0.0 | 0.0 | 0.00 | 0.00 | 0.00 | 79 | 1012.2 |
| 20260508052737 | 42 | 347 | 0.0 | 0.0 | 0.00 | 0.00 | 0.00 | 79 | 1012.2 |
| 20260508051738 | 42 | 355 | 0.0 | 0.0 | 0.00 | 0.00 | 0.00 | 81 | 1012.2 |
| 20260508051237 | 42 | 0 | 0.0 | 0.0 | 0.00 | 0.00 | 0.00 | 80 | 1011.9 |
| 20260508050238 | 43 | 13 | 0.0 | 0.0 | 0.00 | 0.00 | 0.00 | 81 | 1011.9 |
| 20260508045737 | 43 | 359 | 0.0 | 0.0 | 0.00 | 0.00 | 0.00 | 79 | 1011.9 |
| 20260508044738 | 44 | 0 | 0.0 | 0.0 | 0.00 | 0.00 | 0.00 | 77 | 1011.9 |
| 20260508044237 | 44 | 0 | 0.0 | 0.0 | 0.00 | 0.00 | 0.00 | 77 | 1011.9 |
| 20260508043237 | 44 | 111 | 0.0 | 0.0 | 0.00 | 0.00 | 0.00 | 75 | 1011.9 |
| 20260508042237 | 44 | 355 | 0.0 | 0.0 | 0.00 | 0.00 | 0.00 | 74 | 1011.9 |
| 20260508041237 | 43 | 13 | 0.0 | 0.0 | 0.00 | 0.00 | 0.00 | 79 | 1011.9 |
| 20260508040237 | 43 | 185 | 0.0 | 0.0 | 0.00 | 0.00 | 0.00 | 81 | 1011.9 |
| 20260508035238 | 43 | 80 | 0.0 | 0.0 | 0.00 | 0.00 | 0.00 | 80 | 1011.9 |
| 20260508034237 | 43 | 156 | 0.0 | 0.0 | 0.00 | 0.00 | 0.00 | 80 | 1011.9 |
| 20260508033238 | 43 | 49 | 0.0 | 0.0 | 0.00 | 0.00 | 0.00 | 79 | 1011.9 |
| 20260508032737 | 43 | 72 | 1.0 | 1.0 | 0.00 | 0.00 | 0.00 | 82 | 1011.9 |
| 20260508032238 | 43 | 29 | 1.0 | 1.0 | 0.00 | 0.00 | 0.00 | 81 | 1011.9 |
| 20260508031237 | 43 | 58 | 1.0 | 1.0 | 0.00 | 0.00 | 0.00 | 81 | 1011.9 |
| 20260508030237 | 43 | 25 | 1.0 | 1.0 | 0.00 | 0.00 | 0.00 | 80 | 1011.9 |
| 20260508025238 | 43 | 18 | 1.0 | 1.0 | 0.00 | 0.00 | 0.00 | 80 | 1011.9 |
| 20260508024237 | 43 | 335 | 0.0 | 0.0 | 0.00 | 0.00 | 0.00 | 81 | 1012.2 |